Tracking 29892 objects as of 21-Nov-2024
HD Live streaming from Space Station
objects crossing your sky now

CZ-6A DEB

Track CZ-6A DEB now!
10-day predictions


NORAD ID: 56679
Int'l Code: 2022-151AHF
Perigee: 817.6 km
Apogee: 969.8 km
Inclination: 98.9 °
Period: 102.7 minutes
Semi major axis: 7264 km
RCS: Unknown
Launch date: November 11, 2022
Source: People's Republic of China (PRC)
Launch site: Taiyaun Space Center, China (TSC)

Note: This is SATELLITE DEBRIS
Your satellite tracking list
Your tracking list is empty




NASA's NSSDC Master Catalog

Two Line Element Set (TLE):
1 56679U 22151AHF 24304.28099323  .00003755  00000-0  23702-2 0  9999
2 56679  98.9498 304.8070 0104704 281.5622  77.3805 14.02093375 77734
Source of the keplerian elements: AFSPC